Regional Weather Roundup
Issued by NWS Spokane, WA

Home | Current Version | Previous Version | Text Only | Print | Product List | Glossary On
Versions: 1 2 3 4 5 6 7 8 9 10 11 12 13 14 15 16 17 18 19 20 21 22 23 24 25 26 27 28 29 30 31 32 33 34 35 36 37 38 39 40 41 42 43 44 45 46 47 48 49 50
000
NZUS01 KOTX 011205
RWROTX
EASTERN WASHINGTON/NORTHERN IDAHO ROUNDUP
NATIONAL WEATHER SERVICE, SPOKANE WA
500 AM PDT FRI AUG 01 2014

Note: "fair" indicated few or no clouds below 12,000 feet with no
significant weather and/or obstructions to visibility.

...NORTHEAST WASHINGTON AND NORTHERN IDAHO PANHANDLE...

CITY           SKY/WX    TMP DP  RH WIND       PRES   REMARKS
SPOKANE INTL   MOCLDY    69  39  33 CALM      30.03R
SPOKANE DOWNTO MOCLDY    63  43  48 CALM      30.03R
COEUR D ALENE  PTCLDY    57  46  67 E6        30.04R
DEER PARK      PTCLDY    52  41  66 W3        30.03S
SANDPOINT      MOCLDY    54  46  76 CALM      30.05S

...SOUTHEAST WASHINGTON AND SOUTHERN IDAHO PANHANDLE...

CITY           SKY/WX    TMP DP  RH WIND       PRES   REMARKS
WALLA WALLA    CLOUDY    77  44  30 E3        29.95R
PULLMAN/MOSCOW CLOUDY    66  46  48 CALM      30.05S
LEWISTON       CLOUDY    77  47  34 CALM      29.97S
LOWELL           N/A     60  54  80 N3        30.07S

...COLUMBIA BASIN...

CITY           SKY/WX    TMP DP  RH WIND       PRES   REMARKS
EPHRATA        CLOUDY    68  45  43 N3        29.95R
MOSES LAKE     CLOUDY    65  43  44 N7        29.95S
TRI CITIES     CLOUDY    68  60  75 NE5       29.91R
HERMISTON      CLOUDY    71  52  50 W6        29.91R
PENDLETON      CLOUDY    69  46  43 CALM      29.96R

...EAST SLOPES CASCADES...

CITY           SKY/WX    TMP DP  RH WIND       PRES   REMARKS
THE DALLES     CLOUDY    75  57  53 NW18G25   29.93R
YAKIMA         MOCLDY    71  52  50 W9        29.96R
ELLENSBURG     CLOUDY    65  55  70 CALM      30.01R
WENATCHEE      CLOUDY    77  50  38 W8        29.97R
OMAK           MOCLDY    73  36  25 N13       29.99R

...SOUTHERN BRITISH COLUMBIA...

CITY           SKY/WX    TMP DP  RH WIND       PRES   REMARKS

...WESTERN MONTANA...

CITY           SKY/WX    TMP DP  RH WIND       PRES   REMARKS
MISSOULA       MOCLDY    60  42  51 CALM      30.14S

...NEIGHBORING CITIES...

CITY           SKY/WX    TMP DP  RH WIND       PRES   REMARKS
SEATTLE        CLOUDY    63  48  58 NW3       30.05R



USA.gov is the U.S. government's official web portal to all federal, state and local government web resources and services.